Simultaneous Nadir Overpasses (SNOs) Predictions

Prediction of SNOs between LANDSAT-8 and TERRA Satellite Orbit:

Table of predicted SNOs for the next 14.0 days since TLE Epoch: 12/31/2022
Index Date (LANDSAT-8) Time (LANDSAT-8) Lat,Lon (LANDSAT-8) SZA (LANDSAT-8 ) Date (TERRA) Time (TERRA) Lat,Lon (TERRA) SZA (TERRA ) Distance(km) Time Diff (sec)
1 01/07/2023 06:51:12 -77.66, 9.43 63.75 01/07/2023 06:52:25 -77.68, 9.33 63.71 3.12 73
2 01/07/2023 07:40:46 77.97, 175.70 115.90 01/07/2023 07:41:55 77.96, 175.77 115.97 2.20 69
3 01/07/2023 08:30:05 -77.66, -15.28 63.76 01/07/2023 08:31:10 -77.65, -15.25 63.69 0.84 65
4 01/07/2023 09:19:25 77.34, 153.68 116.60 01/07/2023 09:20:27 77.34, 153.66 116.65 0.58 62
5 01/07/2023 10:08:41 -76.87, -36.93 62.90 01/07/2023 10:09:39 -76.88, -36.98 62.86 1.89 58
6 01/07/2023 10:58:03 76.63, 131.57 117.36 01/07/2023 10:58:58 76.65, 131.48 117.38 3.34 55
7 01/07/2023 11:47:36 -76.96, -61.98 63.01 01/07/2023 11:48:26 -76.95, -61.92 62.95 2.08 50
8 01/07/2023 12:36:53 76.48, 107.34 117.50 01/07/2023 12:37:40 76.48, 107.36 117.55 0.65 47
9 01/07/2023 13:26:08 -75.96, -83.33 61.96 01/07/2023 13:26:51 -75.96, -83.34 61.92 0.61 43
10 01/07/2023 14:15:26 75.50, 85.65 118.51 01/07/2023 14:16:06 75.52, 85.60 118.53 2.09 40
11 01/07/2023 15:04:35 -74.66,-104.47 60.66 01/07/2023 15:05:11 -74.68,-104.55 60.65 3.26 36
12 01/07/2023 15:54:15 75.30, 61.49 118.70 01/07/2023 15:54:47 75.29, 61.54 118.75 1.92 32
13 01/07/2023 16:43:29 -74.71,-129.31 60.72 01/07/2023 16:43:57 -74.70,-129.29 60.68 0.74 28
14 01/07/2023 17:32:42 73.97, 40.07 120.00 01/07/2023 17:33:07 73.98, 40.05 120.02 0.79 25
15 01/07/2023 18:21:49 -72.99,-150.23 59.08 01/07/2023 18:22:10 -73.01,-150.27 59.07 1.86 21
16 01/07/2023 19:11:31 73.76, 15.82 120.19 01/07/2023 19:11:48 73.74, 15.88 120.24 3.25 17
17 01/07/2023 20:00:45 -73.15,-175.26 59.23 01/07/2023 20:00:58 -73.14,-175.21 59.20 2.17 13
18 01/07/2023 20:49:49 71.90, -5.29 121.93 01/07/2023 20:49:59 71.90, -5.28 121.95 0.59 10
19 01/07/2023 21:38:53 -70.74, 164.23 57.02 01/07/2023 21:38:59 -70.74, 164.23 57.01 0.33 6
20 01/07/2023 22:27:58 69.49, -26.35 124.10 01/07/2023 22:28:01 69.51, -26.38 124.08 2.02 3
21 01/07/2023 23:16:48 -67.53, 143.69 54.20 01/07/2023 23:16:47 -67.55, 143.65 54.23 2.73 1
22 01/08/2023 00:06:41 68.99, -50.42 124.53 01/08/2023 00:06:36 68.98, -50.39 124.54 2.09 5
23 01/08/2023 00:55:44 -67.75, 118.72 54.40 01/08/2023 00:55:35 -67.74, 118.75 54.40 1.39 9
24 01/08/2023 01:44:29 65.33, -71.13 127.66 01/08/2023 01:44:17 65.33, -71.14 127.64 0.40 12
25 01/08/2023 02:33:15 -63.11, 98.44 50.51 01/08/2023 02:32:59 -63.11, 98.43 50.54 0.78 16
26 01/08/2023 03:21:56 60.38, -91.91 131.68 01/08/2023 03:21:37 60.40, -91.94 131.63 2.78 19
27 01/08/2023 04:10:17 -56.68, 78.01 45.48 01/08/2023 04:09:54 -56.70, 77.98 45.54 2.72 23
28 01/08/2023 05:00:25 58.98,-115.72 132.77 01/08/2023 04:59:58 58.97,-115.71 132.73 1.52 27
29 01/08/2023 05:49:18 -57.15, 53.02 45.84 01/08/2023 05:48:47 -57.13, 53.04 45.88 1.65 31
30 01/08/2023 06:36:58 50.75,-136.17 138.79 01/08/2023 06:36:24 50.75,-136.18 138.71 0.56 34
31 01/08/2023 07:25:31 -47.74, 32.72 39.21 01/08/2023 07:24:53 -47.74, 32.72 39.31 0.29 38
32 01/08/2023 08:14:56 47.49,-159.55 140.95 01/08/2023 08:14:15 47.51,-159.55 140.83 3.19 41
33 01/08/2023 09:04:23 -47.68, 8.02 39.19 01/08/2023 09:03:38 -47.70, 8.04 39.30 3.45 45
34 01/08/2023 09:53:57 47.96, 175.54 140.63 01/08/2023 09:53:08 47.96, 175.59 140.54 3.61 49
35 01/08/2023 10:43:24 -48.15, -16.88 39.50 01/08/2023 10:42:31 -48.15, -16.82 39.59 4.89 53
36 01/08/2023 11:32:57 48.37, 150.66 140.35 01/08/2023 11:32:01 48.40, 150.72 140.24 6.01 56
37 01/08/2023 12:45:56 -45.04, 149.95 110.41 01/08/2023 12:44:54 -45.04, 149.86 110.33 6.58 62
38 01/08/2023 13:35:19 45.05, -42.39 69.60 01/08/2023 13:34:14 45.05, -42.47 69.68 5.86 65
39 01/08/2023 14:24:49 -45.04, 125.23 110.42 01/08/2023 14:23:39 -45.07, 125.18 110.31 4.73 70



Historial Predications of SNOs between LANDSAT-8 and TERRA
